User: anonymous   Login
Location: Observatorio Las Palmas
(29.0667°N, 110.9333°W)
Time: 01:13:53
(UTC-07:00)
Language:

NOAA 19 - Orbit

View from above orbital plane
View from above orbital plane
View from above satellite
View from above satellite

Ground track
Ground track

The orbit data is extracted from the following two-line orbital elements,

1 33591U 09005A   15115.44336149  .00000344  00000-0  21251-3 0  9997
2 33591 098.9854 065.2090 0013435 322.9649 037.0593 14.11919377320048
Epoch (UTC): 25 April 2015 10:38:26
Eccentricity: 0.0013435
inclination: 98.9854°
perigee height: 843 km
apogee height: 862 km
right ascension of ascending node: 65.2090°
argument of perigee: 322.9649°
revolutions per day: 14.11919377
mean anomaly at epoch: 37.0593°
orbit number at epoch: 32004

The dashed part of the orbit path shows where the satellite is in the earth's shadow,  

DLR